OneWeb SL0416

operational
NORAD ID: 51625 Int'l Des: 2022-012 Owner: ONEWEBN Country: UK Constellation: oneweb
LEOCIRCULARPOLARONEWEB_TYPE

OneWeb SL0416について

説明を読み込み中...

リアルタイム位置

3D地球を読み込み中...

次回通過

高度履歴

Altitude vs Time

uPlot chart will show altitude changes over time

軌道要素

1 51625U 22012D 25306.39224330 -.00000213 00000-0 -64511-3 0 9996
2 51625 87.8774 81.5001 0001589 95.2812 264.8496 13.10370989179622
Epoch: Nov 2, 2025 • Age: 29 hours

現在のステータス

高度 1225.3 km
速度 7.24 km/s
衛星直下点 -3.85°S, 177.27°E
打ち上げ日 Feb 10, 2022
運用期間 3.7 years
タイプ internet

技術仕様

分類 Payload
質量 148.00 kg
乾燥質量 140.00 kg
総質量 148.00 kg
長さ 1.30 m
直径 1.00 m
スパン 5.00 m
形状 Trapezoid+2 pan
製造者 ONEWUS
バスタイプ ARROW
フェーズステータス In Orbit
所有者/国 ONEWEBN/UK

大規模コンステレーション

Loading constellations...